Satellite-Ground Cal/Val Region Overpasses Predictions

Prediction of Satellite NPP Overpassing Cal/Val Region: PacNW

Region Location: (Latitude: 10.00, Longitude: 139.50) to (Latitude: 22.70, Longitude: 165.60).

Table of predicted overpasses for the next 14.0 days since TLE Epoch: 7/26/2014
Interval Starting Time Starting Location Ending Time Ending Location
1 07/27/2014 03:37:42 ( 10.02, 147.11) 07/27/2014 03:41:18 ( 22.70, 144.08)
2 07/27/2014 16:09:36 ( 22.69, 144.38) 07/27/2014 16:13:12 ( 10.01, 141.35)
3 07/28/2014 03:18:42 ( 10.01, 151.87) 07/28/2014 03:22:18 ( 22.68, 148.84)
4 07/28/2014 15:50:36 ( 22.65, 149.13) 07/28/2014 15:54:11 ( 10.03, 146.11)
5 07/29/2014 02:59:42 ( 10.05, 156.62) 07/29/2014 03:03:17 ( 22.67, 153.60)
6 07/29/2014 15:31:36 ( 22.66, 153.89) 07/29/2014 15:35:11 ( 10.05, 150.87)
7 07/30/2014 02:40:42 ( 10.03, 161.38) 07/30/2014 02:44:17 ( 22.65, 158.36)
8 07/30/2014 15:12:36 ( 22.68, 158.65) 07/30/2014 15:16:12 ( 10.00, 155.62)
9 07/31/2014 02:22:21 ( 12.37, 165.60) 07/31/2014 02:25:17 ( 22.70, 163.11)
10 07/31/2014 04:03:11 ( 10.02, 140.76) 07/31/2014 04:04:43 ( 15.42, 139.51)
11 07/31/2014 14:53:35 ( 22.69, 163.41) 07/31/2014 14:57:11 ( 10.02, 160.38)
12 08/01/2014 03:44:11 ( 10.01, 145.52) 08/01/2014 03:47:47 ( 22.68, 142.49)
13 08/01/2014 14:37:38 ( 11.97, 165.59) 08/01/2014 14:38:11 ( 10.03, 165.14)
14 08/01/2014 16:16:06 ( 22.65, 142.78) 08/01/2014 16:19:41 ( 10.03, 139.77)
15 08/02/2014 03:25:11 ( 10.05, 150.27) 08/02/2014 03:28:46 ( 22.67, 147.25)
16 08/02/2014 15:57:05 ( 22.66, 147.54) 08/02/2014 16:00:40 ( 10.04, 144.53)
17 08/03/2014 03:06:11 ( 10.04, 155.03) 08/03/2014 03:09:46 ( 22.66, 152.01)
18 08/03/2014 15:38:05 ( 22.67, 152.31) 08/03/2014 15:41:40 ( 10.05, 149.29)
19 08/04/2014 02:47:10 ( 10.03, 159.79) 08/04/2014 02:50:45 ( 22.65, 156.78)
20 08/04/2014 15:19:04 ( 22.68, 157.07) 08/04/2014 15:22:40 ( 10.01, 154.04)
21 08/05/2014 02:28:10 ( 10.02, 164.55) 08/05/2014 02:31:46 ( 22.70, 161.52)
22 08/05/2014 15:00:04 ( 22.69, 161.83) 08/05/2014 15:03:40 ( 10.02, 158.80)
23 08/06/2014 03:50:39 ( 10.01, 143.94) 08/06/2014 03:54:15 ( 22.69, 140.91)
24 08/06/2014 14:42:12 ( 18.66, 165.59) 08/06/2014 14:44:39 ( 10.03, 163.56)
25 08/06/2014 16:22:34 ( 22.64, 141.20) 08/06/2014 16:24:32 ( 15.72, 139.51)
26 08/07/2014 03:31:39 ( 10.00, 148.70) 08/07/2014 03:35:15 ( 22.68, 145.67)
27 08/07/2014 16:03:34 ( 22.65, 145.96) 08/07/2014 16:07:09 ( 10.03, 142.94)
28 08/08/2014 03:12:40 ( 10.05, 153.44) 08/08/2014 03:16:15 ( 22.67, 150.43)
29 08/08/2014 15:44:33 ( 22.66, 150.72) 08/08/2014 15:48:08 ( 10.04, 147.70)
30 08/09/2014 02:53:39 ( 10.04, 158.20) 08/09/2014 02:57:14 ( 22.66, 155.19)


NCC Satellite Cal/Val Overpasses Prediction Service
